This is the latest recevied weather packets stored in our database for station/object OK2ILA-13. If no packets are shown the sender has not sent any weather packets the latest 10 day(s).
| Time | Temp. | Humidity | Pressure | Rain* | Wind** | Luminosity | Snow |
|---|---|---|---|---|---|---|---|
| 1777083899 | 0° C | 88% | 1015.4 hPa | - | - | - | - |
| 1777083300 | 0.56° C | 88% | 1015.5 hPa | - | - | - | - |
| 1777082700 | 1.11° C | 88% | 1015.5 hPa | - | - | - | - |
| 1777082100 | 1.11° C | 88% | 1015.5 hPa | - | - | - | - |
| 1777081500 | 1.11° C | 88% | 1015.5 hPa | - | - | - | - |
| 1777080901 | 1.67° C | 88% | 1015.6 hPa | - | - | - | - |
| 1777080301 | 1.67° C | 88% | 1015.4 hPa | - | - | - | - |
| 1777079702 | 1.67° C | 88% | 1015.4 hPa | - | - | - | - |
| 1777079102 | 1.11° C | 88% | 1015.4 hPa | - | - | - | - |
| 1777078503 | 1.11° C | 87% | 1015.6 hPa | - | - | - | - |
| 1777077904 | 1.11° C | 87% | 1015.7 hPa | - | - | - | - |
| 1777077304 | 1.11° C | 87% | 1015.6 hPa | - | - | - | - |
| 1777076704 | 1.11° C | 87% | 1015.7 hPa | - | - | - | - |
| 1777076104 | 1.11° C | 87% | 1015.7 hPa | - | - | - | - |
| 1777075504 | 1.67° C | 87% | 1015.8 hPa | - | - | - | - |
| 1777074905 | 1.67° C | 87% | 1015.8 hPa | - | - | - | - |
| 1777074304 | 1.67° C | 86% | 1015.9 hPa | - | - | - | - |
| 1777073705 | 2.22° C | 87% | 1015.9 hPa | - | - | - | - |
| 1777073106 | 1.67° C | 87% | 1015.9 hPa | - | - | - | - |
| 1777072506 | 2.22° C | 86% | 1016 hPa | - | - | - | - |
| 1777071906 | 2.22° C | 86% | 1016 hPa | - | - | - | - |
| 1777071306 | 2.22° C | 86% | 1016.1 hPa | - | - | - | - |
| 1777070706 | 2.22° C | 85% | 1016.1 hPa | - | - | - | - |
| 1777070106 | 2.22° C | 85% | 1016.1 hPa | - | - | - | - |
| 1777069506 | 2.78° C | 84% | 1016.2 hPa | - | - | - | - |
* Rain since midnight (hover to see other rain measurements)
** Current wind speed in m/s (hover to see current wind gust speed)